Portada
METAR-TAF:

METAR-TAF

Aeroports :

Door County Cherryland Airport

Sturgeon Bay, Wisconsin, Estats Units d'Amèrica

latitud: 44-51N, longitud: 087-25W, altitud: 221 m

Observació

L'informe es va fer fa 6 minuts, a les 10:56 UTC
Vent 5 kt del Nord-Est
Temperatura -1°C
Humitat 86%
Pressió 1023 hPa
Visibilitat: 16.1 km
Cel clar

METAR: KSUE 151056Z AUTO 05005KT 10SM CLR M01/M03 A3022 RMK AO2 SLP261 T10061033 FZRANO

Hora: 05:02 (11:02 UTC)


TAF: manca

Observacions i pronòstics meteorològics de més de 4000 aeroports (METAR i TAF).

Les estacions disponibles són els punts grocs i vermells al mapa.

Posi el ratolí al punt desitjat per veure el nom de l'estació.

Feu clic per veure les observacions i els pronòstics meteorològics.

Per canviar el mapa: feu clic els botons verds amb una creu de color negre per apropar; al botó verd amb un guió per allunyar la imatge; o en les fletxes verdes per a mapes adjacents.


METAR-TAF: